Tracking 19562 objects as of 24-Mar-2019
HD Live streaming from Space Station
objects crossing your sky now

FLOCK 2K 45

Track FLOCK 2K 45 now!
10-day predictions
FLOCK 2K 45 is classified as:


NORAD ID: 42856
Int'l Code: 2017-042AH
Perigee: 450.9 km
Apogee: 464.3 km
Inclination: 97.0 °
Period: 93.6 minutes
Semi major axis: 6828 km
RCS: Unknown
Launch date: July 14, 2017
Source: United States (US)
Launch site: TYURATAM MISSILE AND SPACE COMPLEX (TTMTR)
aabbcc
Your satellite tracking list
Your tracking list is empty




NASA's NSSDC Master Catalog

Two Line Element Set (TLE):
1 42856U 17042AH  19083.19548114  .00003550  00000-0  95246-4 0  9996
2 42856  96.9509 330.3856 0009795 165.9319 194.2202 15.38523644 94663
Source of the keplerian elements: AFSPC